NOAA 16 DEB, 41141

Orbit data source: Space-Track

NOAA 16 DEB, 41141 is space debris in SSO originally from a launch on Thu, 21 Sep 2000 UTC launched from the Air Force Western Test Range (AFWTR). Debris objects in space refer to the collection of defunct objects orbiting the Earth. Examples of debris include non-operational satellites, rocket bodies, and fragments generated from explosions, collisions, or faulty payload assembly.

Loading next visibility...
Identifier
41141, 2000-055BY
Orbit
SSO
Country
Flag of USUS
Related business
Manufacturer
Unknown
Mission
Spacecraft
Bus & Motor
Unknown
Mass
Unknown
Launch date (UTC)
2000-09-21 (26 years ago)
Launch vehicle
Unknown
Launch site
Air Force Western Test Range (AFWTR)
Object type
Payload
Rocket body
Debris
Shape & HBR
Unknown shape, 0.1 m
Radar Cross Section
Medium (>0.1 m² and <1 m²)

Expand to show TLE details & history
Last TLE update: 13 hours ago

TLE from 13 hours ago
0 NOAA 16 DEB
1 41141U 00055BY  26254.24441087  .00010273  00000-0  15863-2 0  9998
2 41141  98.9669 184.3399 0036631  86.5846 273.9547 14.73099133564836
Epoch: 2026-09-11T05:51Z
TLE epoch observation values (Epoch: 2026-09-11T05:51:57.099Z)
Latitude
-0.00009°
Longitude
106.08146°
Altitude
652.488 km
Speed
7.532 km/s
True Right ascension
12h 17m 21s
True Declination
0° 00' 00"
Sunlit
Object was in daylight at epoch
Visualization orbit readout
Latitude
Unknown
Longitude
Unknown
Altitude
Unknown
Speed
Unknown
Apparent Right ascension
Unknown
Apparent Declination
Unknown
Sunlit
N/A
Visualization observer readout
Local Sidereal Time
11:28:21
Azimuth
Unknown
Elevation
Unknown
Doppler factor
Unknown
Orbital elements
Apogee altitude
674.031 km
Perigee altitude
622.554 km
Semi-major axis
7,026.43 km
Eccentricity
0.00366
Inclination
98.9669°
RAAN
184.3399°
Arg. of periapsis
86.5846°
True anomaly
273.53581°
Mean anomaly
273.9547°
Eccentric anomaly
273.74527°
Mean motion
3.68503 °/min
Orbital period
97.69 mins
BSTAR
0.0015863
Loading maneuver chart data...
Computing Atmospheric mass density...
Loading historical data...
Loading historical data...
Loading historical data...
Loading historical data...
Loading historical data...
Loading historical data...
Loading historical data...

Documentation

Showing up to 5 results
|